This is the latest recevied weather packets stored in our database for station/object KT5AL. If no packets are shown the sender has not sent any weather packets the latest 10 day(s).
| Time | Temp. | Humidity | Pressure | Rain* | Wind** | Luminosity | Snow |
|---|---|---|---|---|---|---|---|
| 1778015108 | 27.78° C | 48% | 1001.6 hPa | 0 mm | - | - | - |
| 1778014806 | 28.33° C | 46% | 1001.6 hPa | 0 mm | - | - | - |
| 1778014509 | 28.33° C | 49% | 1001.6 hPa | 0 mm | - | - | - |
| 1778014206 | 28.33° C | 44% | 1001.6 hPa | 0 mm | - | - | - |
| 1778013902 | 27.78° C | 46% | 1001.6 hPa | 0 mm | - | - | - |
| 1778013606 | 27.78° C | 46% | 1001.6 hPa | 0 mm | - | - | - |
| 1778013303 | 28.33° C | 44% | 1000.9 hPa | 0 mm | - | - | - |
| 1778013005 | 28.33° C | 47% | 1000.9 hPa | 0 mm | - | - | - |
| 1778012706 | 28.33° C | 47% | 1001.2 hPa | 0 mm | - | - | - |
| 1778012408 | 28.89° C | 47% | 1001.2 hPa | 0 mm | - | - | - |
| 1778012107 | 29.44° C | 47% | 1001.6 hPa | 0 mm | - | - | - |
| 1778011805 | 29.44° C | 46% | 1001.6 hPa | 0 mm | - | - | - |
| 1778011507 | 28.89° C | 47% | 1001.2 hPa | 0 mm | - | - | - |
| 1778011205 | 29.44° C | 47% | 1001.2 hPa | 0 mm | - | - | - |
| 1778010908 | 29.44° C | 52% | 1001.2 hPa | 0 mm | - | - | - |
| 1778010605 | 29.44° C | 56% | 1001.2 hPa | 0 mm | - | - | - |
| 1778010308 | 29.44° C | 58% | 1001.6 hPa | 0 mm | - | - | - |
| 1778010004 | 28.89° C | 62% | 1001.6 hPa | 0 mm | - | - | - |
| 1778009733 | 28.89° C | 62% | 1001.6 hPa | 0 mm | - | - | - |
| 1778009404 | 28.89° C | 62% | 1001.6 hPa | 0 mm | - | - | - |
| 1778009106 | 29.44° C | 61% | 1001.2 hPa | 0 mm | - | - | - |
| 1778008809 | 29.44° C | 63% | 1001.2 hPa | 0 mm | - | - | - |
| 1778008505 | 28.89° C | 61% | 1001.6 hPa | 0 mm | - | - | - |
| 1778008202 | 29.44° C | 61% | 1001.6 hPa | 0 mm | - | - | - |
| 1778007906 | 28.89° C | 61% | 1001.6 hPa | 0 mm | - | - | - |
* Rain latest hour (hover to see other rain measurements)
** Current wind speed in m/s (hover to see current wind gust speed)